Lapse_Rate
5.4 5.4 5.2 4.5 3.9 4.0 3.4 3.0 3.2 3.0 3.1 3.2 4.0 4.5 5.2 5.8 5.9 5.4 5.3 6.2 6.2 6.1
5.7 5.6 5.7 5.8 5.1 4.7 4.6 3.5 3.2 3.2 3.1 3.2 3.3 4.1 4.9 5.5 6.0 6.0 5.9 6.6 6.2 6.3
5.8 5.9 6.0 6.2 6.2 5.7 5.4 5.0 3.9 3.4 3.3 3.2 3.3 3.5 4.2 5.2 5.6 5.9 5.6 5.6 6.2 6.2
5.8 5.9 6.1 6.2 6.3 6.3 6.3 6.0 5.3 4.2 3.3 3.4 3.4 3.4 3.6 4.5 5.5 5.9 6.2 5.7 6.0 6.1
5.8 5.9 6.2 6.4 6.4 6.5 6.6 6.9 6.3 5.3 4.1 3.5 3.7 3.6 3.4 3.8 4.9 5.5 5.8 6.0 5.5 5.5
5.9 6.0 6.2 6.4 6.6 6.6 6.9 7.5 7.3 6.7 5.4 4.3 4.0 3.9 3.6 3.4 4.2 5.1 5.6 5.9 6.2 6.2
6.0 6.2 6.3 6.4 6.8 6.9 7.2 7.6 7.6 7.6 6.9 5.6 4.5 4.3 4.1 3.8 3.6 4.8 5.2 5.4 5.7 5.5
6.0 6.2 6.3 6.4 6.8 7.1 7.3 7.4 7.4 7.4 7.4 6.9 5.8 4.9 4.7 4.2 3.8 3.8 5.0 5.2 5.4 5.9
5.9 6.0 6.1 6.3 6.7 7.0 7.0 7.1 7.1 7.1 7.0 6.9 6.5 5.8 5.0 4.7 4.3 4.1 4.3 5.3 5.4 5.7
5.8 6.0 6.1 6.2 6.5 6.7 6.7 6.8 6.9 6.9 6.7 6.4 6.2 6.1 5.8 5.0 4.6 4.2 4.0 4.8 5.6 6.3
5.9 6.0 6.0 6.2 6.2 6.4 6.4 6.6 6.7 6.6 6.3 5.9 5.7 5.7 5.8 5.7 5.1 4.6 4.3 4.2 5.0 5.8
5.8 5.9 6.0 6.1 5.9 6.0 6.2 6.3 6.3 6.4 5.9 5.6 5.4 5.2 5.5 5.5 5.6 5.0 4.6 4.2 4.3 5.0
5.7 5.8 6.0 5.8 5.6 5.7 5.9 6.1 6.0 6.0 5.5 5.3 5.4 5.2 5.2 4.9 5.0 5.3 5.0 4.4 4.4 4.4
5.7 5.9 5.9 5.6 5.5 5.6 5.7 5.8 6.0 5.9 5.4 5.2 5.0 5.1 4.9 4.5 4.4 4.7 4.9 4.6 4.6 4.9
Wind_Speed
9 8 9 11 11 10 11 10 13 12 14 14 15 12 12 9 9 11 10 13 13 10
8 9 10 12 12 10 12 11 13 14 15 13 12 13 13 9 12 12 12 11 13 11
10 9 10 10 12 13 13 13 14 14 14 15 14 13 13 11 11 11 9 9 13 13
10 10 10 10 11 12 13 14 14 14 14 14 16 14 12 12 13 14 12 11 10 15
11 11 11 11 11 11 13 13 14 14 14 14 15 14 13 14 12 14 14 13 11 14
11 11 11 12 11 11 12 13 13 15 13 14 14 15 16 15 14 13 14 14 14 13
13 12 12 12 12 12 11 12 13 13 13 14 15 15 15 16 15 14 13 12 14 14
16 14 13 12 11 11 11 12 12 13 13 13 13 11 14 14 15 15 14 13 13 14
16 15 14 13 12 11 11 11 12 12 12 13 10 22 25 21 14 15 15 13 13 12
16 16 15 13 13 13 11 11 12 12 10 12 13 24 25 25 14 14 14 13 14 14
15 15 15 14 14 13 10 11 11 11 11 12 12 25 26 25 15 13 15 16 15 16
16 16 15 14 14 12 10 10 10 10 12 12 14 24 25 21 12 12 15 15 16 17
17 16 15 14 12 11 10 10 9 11 11 17 14 23 24 19 9 11 10 12 15 24
15 14 12 11 8 10 10 10 10 11 11 12 14 14 22 21 10 7 7 8 10 12
Wind_Direction
297 301 307 308 311 306 306 306 308 307 314 311 310 309 309 303 299 294 290 301 301 222
289 291 292 300 302 302 301 302 303 306 308 305 305 306 305 302 304 307 295 299 304 302
291 284 288 293 295 297 297 300 300 300 300 302 302 301 300 299 293 293 296 295 305 296
290 288 285 285 286 289 293 296 297 297 297 298 299 297 294 295 296 294 298 297 294 308
291 293 291 285 281 283 286 291 294 293 293 294 294 293 292 294 293 290 288 285 292 284
293 292 289 288 284 282 283 285 284 289 290 290 290 291 289 288 288 282 286 289 283 275
298 292 290 286 284 282 279 280 280 280 285 286 286 286 286 286 285 276 273 271 283 291
299 294 288 286 283 280 278 281 279 280 279 280 281 282 282 280 283 283 277 273 269 273
299 296 291 287 283 280 281 281 281 278 275 280 280 282 282 284 280 279 276 272 272 261
299 296 292 291 289 286 282 278 279 277 272 276 275 279 282 281 279 277 277 273 273 272
302 298 294 291 288 285 281 277 278 278 273 272 274 280 284 284 280 272 271 269 263 264
300 293 290 287 284 282 280 278 276 274 277 274 275 281 286 285 275 269 267 266 265 259
297 290 285 282 281 281 278 277 279 279 275 274 282 285 288 285 272 265 268 271 272 265
303 299 289 279 274 276 279 278 279 279 278 278 278 283 290 287 283 269 267 272 277 268